Dalaman, Turkey

11:22 PM +03 on April 23, 2017 (GMT +0300)
Dalaman

Weather History for LTBS - June, 2013

Change the Weather History Date:

Friday, June 28, 2013

  Actual Average Record
Temperature  
Mean Temperature 78 °F -  
Max Temperature 87 °F 88 °F 95 °F (2004)
Min Temperature 69 °F 67 °F 59 °F (2005)
Cooling Degree Days 13    
Growing Degree Days 28 (Base 50)    
Moisture  
Dew Point 69 °F    
Average Humidity 71    
Maximum Humidity 89    
Minimum Humidity 55    
Precipitation  
Precipitation 0.00 in - - ()
Sea Level Pressure  
Sea Level Pressure 29.73 in    
Wind  
Wind Speed 6 mph ()    
Max Wind Speed 18 mph    
Max Gust Speed -    
Visibility 6.2 miles    
Events      
Averages and records for this station are not official NWS values.
T = Trace of Precipitation, MM = Missing Value Source: Averaged Metar Reports

Daily Weather History Graph

Daily Weather History Graph

Search for Another Location

Airport or City:

Trip Planner

Search our weather history database for the weather conditions in past years. The results will help you decide how hot, cold, wet, or windy it might be!

Date:

Astronomy

Jun. 28, 2013 Rise Set
Actual Time 5:48 AM EEST 8:27 PM EEST
Civil Twilight 5:17 AM EEST 8:58 PM EEST
Nautical Twilight 4:39 AM EEST 9:36 PM EEST
Astronomical Twilight 3:57 AM EEST 10:19 PM EEST
Moon 11:56 PM EEST (6/28) 11:25 AM EEST (6/28)
Length of Visible Light 15h 40m
Length of Day
14h 39m
Waning Gibbous, 69% of the Moon is Illuminated
Jun 28
Waning Gibbous
Jun 30
Last Quarter
Jul 8
New
Jul 16
First Quarter
Jul 22
Full

Hourly Weather History & Observations

Time (EEST) Temp. Heat Index Dew Point Humidity Pressure Visibility Wind Dir Wind Speed Gust Speed Precip Events Conditions
12:20 AM 75.2 °F - 71.6 °F 89% 29.77 in - East 1.2 mph - N/A   Clear
12:50 AM 75.2 °F - 69.8 °F 83% 29.77 in - Variable 1.2 mph - N/A   Clear
1:20 AM 75.2 °F - 68.0 °F 78% 29.77 in - Variable 2.3 mph - N/A   Clear
1:50 AM 73.4 °F - 68.0 °F 83% 29.77 in - East 4.6 mph - N/A   Clear
2:20 AM 73.4 °F - 66.2 °F 78% 29.74 in - NE 3.5 mph - N/A   Clear
2:50 AM 73.4 °F - 66.2 °F 78% 29.74 in - Variable 1.2 mph - N/A   Clear
3:00 AM 74 °F - 66 °F 70% 29.76 in 6 mi ENE 1.2 mph - -  
3:20 AM 73.4 °F - 66.2 °F 78% 29.74 in - East 2.3 mph - N/A   Clear
3:50 AM 71.6 °F - 66.2 °F 83% 29.74 in - East 4.6 mph - N/A   Clear
4:20 AM 73.4 °F - 68.0 °F 83% 29.74 in - ENE 4.6 mph - N/A   Clear
4:50 AM 69.8 °F - 66.2 °F 88% 29.74 in - NE 3.5 mph - N/A   Clear
5:20 AM 71.6 °F - 68.0 °F 88% 29.74 in - East 3.5 mph - N/A   Clear
5:50 AM 71.6 °F - 66.2 °F 83% 29.74 in - ENE 3.5 mph - N/A   Clear
6:20 AM 71.6 °F - 68.0 °F 88% 29.74 in - East 3.5 mph - N/A   Clear
6:50 AM 71.6 °F - 68.0 °F 88% 29.74 in - ENE 4.6 mph - N/A   Clear
7:20 AM 75.2 °F - 69.8 °F 83% 29.74 in - NE 4.6 mph - N/A   Clear
7:50 AM 78.8 °F - 69.8 °F 74% 29.74 in - NE 3.5 mph - N/A   Clear
8:20 AM 78.8 °F - 68.0 °F 69% 29.74 in - NNE 4.6 mph - N/A   Clear
8:50 AM 82.4 °F 85.4 °F 68.0 °F 62% 29.74 in - Variable 2.3 mph - N/A   Clear
9:20 AM 82.4 °F 85.4 °F 68.0 °F 62% 29.74 in - SW 6.9 mph - N/A   Clear
9:50 AM 82.4 °F 85.4 °F 68.0 °F 62% 29.74 in - SW 6.9 mph - N/A   Clear
10:20 AM 82.4 °F 86.3 °F 69.8 °F 66% 29.74 in - SSW 9.2 mph - N/A   Clear
10:50 AM 86.0 °F 89.4 °F 68.0 °F 55% 29.74 in - SW 9.2 mph - N/A   Clear
11:20 AM 86.0 °F 90.4 °F 69.8 °F 58% 29.74 in - SSW 10.4 mph - N/A   Clear
11:50 AM 84.2 °F 89.6 °F 71.6 °F 66% 29.74 in - SW 12.7 mph - N/A   Clear
12:20 PM 84.2 °F 89.6 °F 71.6 °F 66% 29.74 in - SW 12.7 mph - N/A   Clear
12:50 PM 86.0 °F 91.8 °F 71.6 °F 62% 29.74 in 6.2 mi SW 12.7 mph - N/A   Partly Cloudy
1:20 PM 84.2 °F 89.6 °F 71.6 °F 66% 29.74 in 6.2 mi WSW 16.1 mph - N/A   Partly Cloudy
1:50 PM 86.0 °F 93.4 °F 73.4 °F 66% 29.74 in 6.2 mi WSW 16.1 mph - N/A   Partly Cloudy
2:20 PM 86.0 °F 91.8 °F 71.6 °F 62% 29.74 in 6.2 mi WSW 15.0 mph - N/A   Partly Cloudy
2:50 PM 86.0 °F 91.8 °F 71.6 °F 62% 29.74 in 6.2 mi WSW 18.4 mph - N/A   Partly Cloudy
3:00 PM 86 °F - 72 °F 55% 29.74 in 6 mi WSW 18.4 mph - -   Scattered Clouds
3:20 PM 86.0 °F 93.4 °F 73.4 °F 66% 29.74 in 6.2 mi SW 16.1 mph - N/A   Partly Cloudy
3:50 PM 86.0 °F 91.8 °F 71.6 °F 62% 29.71 in 6.2 mi SW 15.0 mph - N/A   Partly Cloudy
4:20 PM 86.0 °F 91.8 °F 71.6 °F 62% 29.71 in 6.2 mi SSW 13.8 mph - N/A   Partly Cloudy
4:50 PM 84.2 °F 89.6 °F 71.6 °F 66% 29.71 in 6.2 mi South 13.8 mph - N/A   Partly Cloudy
5:20 PM 84.2 °F 89.6 °F 71.6 °F 66% 29.71 in 6.2 mi South 13.8 mph - N/A   Partly Cloudy
5:50 PM 82.4 °F 86.3 °F 69.8 °F 66% 29.71 in 6.2 mi South 12.7 mph - N/A   Partly Cloudy
6:20 PM 84.2 °F 88.4 °F 69.8 °F 62% 29.68 in 6.2 mi SSW 13.8 mph - N/A   Partly Cloudy
6:50 PM 84.2 °F 88.4 °F 69.8 °F 62% 29.71 in 6.2 mi SSW 12.7 mph - N/A   Partly Cloudy
7:20 PM 82.4 °F 86.3 °F 69.8 °F 66% 29.71 in 6.2 mi South 9.2 mph - N/A   Partly Cloudy
7:50 PM 82.4 °F 86.3 °F 69.8 °F 66% 29.71 in 6.2 mi South 8.1 mph - N/A   Partly Cloudy
8:20 PM 82.4 °F 86.3 °F 69.8 °F 66% 29.71 in 6.2 mi South 6.9 mph - N/A   Partly Cloudy
8:50 PM 80.6 °F 83.9 °F 69.8 °F 70% 29.71 in - South 8.1 mph - N/A   Clear
9:00 PM 81 °F - 69 °F 60% 29.72 in 6 mi South 8.1 mph - -  
9:20 PM 80.6 °F 83.9 °F 69.8 °F 70% 29.71 in - Calm Calm - N/A   Clear
9:50 PM 80.6 °F 83.9 °F 69.8 °F 70% 29.71 in - NW 6.9 mph - N/A   Clear
10:20 PM 80.6 °F 83.9 °F 69.8 °F 70% 29.74 in - NW 3.5 mph - N/A   Clear
10:50 PM 77.0 °F - 69.8 °F 78% 29.74 in - Calm Calm - N/A   Clear
11:20 PM 77.0 °F - 69.8 °F 78% 29.71 in - NE 2.3 mph - N/A   Clear
11:50 PM 75.2 °F - 69.8 °F 83% 29.71 in - Calm Calm - N/A   Clear